Total_Precipitation_Accumulation
0.10 0.28 0.57 0.86 1.16 1.51 1.39 0.89 0.60 0.56 0.63 0.59 0.64 0.66 0.70 0.76 1.09 1.80 1.40 1.06 0.97 0.96 0.92 1.01 1.19 1.15 1.19 1.22 1.26 1.39 1.41 1.41 1.44 1.41 1.38 1.42 1.45 1.45 1.44 1.43 1.53 1.58 1.61 1.69 1.69 1.55 1.40 1.25 1.18
0.16 0.38 0.62 0.92 1.40 1.76 1.42 0.76 0.55 0.59 0.59 0.52 0.54 0.64 0.75 0.64 0.62 0.89 1.06 0.91 0.69 0.68 0.72 0.77 1.02 1.06 1.05 1.10 1.16 1.29 1.30 1.27 1.29 1.30 1.35 1.37 1.41 1.47 1.51 1.52 1.57 1.54 1.54 1.74 1.60 1.40 1.17 1.06 1.07
0.24 0.45 0.64 0.95 1.09 1.25 1.03 0.55 0.46 0.42 0.53 0.59 0.60 0.59 0.72 0.67 0.60 0.74 0.84 0.69 0.51 0.50 0.61 0.81 0.97 1.05 1.05 1.03 1.09 1.18 1.16 1.17 1.18 1.17 1.22 1.29 1.35 1.46 1.52 1.52 1.47 1.38 1.45 1.63 1.50 1.25 1.04 0.94 0.96
0.35 0.51 0.58 0.72 0.63 0.63 0.54 0.40 0.36 0.35 0.47 0.55 0.66 0.74 0.75 0.68 0.69 0.73 0.64 0.52 0.38 0.44 0.56 0.79 0.93 0.93 0.91 0.91 1.00 1.08 1.11 1.13 1.10 1.06 1.14 1.24 1.29 1.34 1.37 1.34 1.26 1.23 1.32 1.38 1.52 1.23 1.05 0.97 1.02
0.37 0.47 0.69 0.62 0.52 0.52 0.47 0.37 0.34 0.32 0.43 0.57 0.59 0.82 1.01 0.86 0.66 0.56 0.49 0.47 0.40 0.47 0.55 0.67 0.84 0.85 0.90 0.93 0.93 0.95 1.08 1.08 1.02 1.02 1.08 1.21 1.22 1.30 1.30 1.17 1.08 1.12 1.27 1.29 1.37 1.32 1.14 1.01 1.02
0.29 0.43 0.56 0.48 0.44 0.40 0.36 0.31 0.32 0.34 0.43 0.65 0.59 0.79 1.24 1.04 0.69 0.57 0.46 0.44 0.46 0.48 0.51 0.58 0.72 0.77 0.84 0.86 0.86 0.90 0.93 0.97 1.01 1.06 1.09 1.08 1.16 1.21 1.14 1.06 1.05 1.02 1.18 1.20 1.14 1.27 1.16 1.00 0.99
0.24 0.33 0.33 0.33 0.32 0.33 0.29 0.29 0.30 0.30 0.48 0.78 0.63 0.86 1.39 1.35 0.85 0.65 0.62 0.53 0.53 0.50 0.53 0.56 0.64 0.72 0.78 0.84 0.85 0.92 0.98 0.95 1.00 1.05 1.09 1.12 1.10 1.02 0.96 1.03 1.04 0.97 1.02 1.05 1.00 1.00 0.95 0.89 0.91
0.17 0.18 0.19 0.23 0.24 0.24 0.19 0.22 0.25 0.39 0.53 0.66 0.54 0.82 1.48 1.40 0.91 0.80 0.86 0.78 0.87 0.86 0.77 0.60 0.54 0.65 0.73 0.74 0.88 0.96 0.97 0.96 0.98 1.04 1.12 1.13 1.03 0.94 0.94 0.96 1.04 1.01 0.96 0.93 0.90 0.84 0.81 0.84 0.89
0.11 0.16 0.19 0.17 0.17 0.16 0.16 0.18 0.22 0.36 0.52 0.68 0.71 0.78 1.04 0.94 0.90 0.99 1.12 1.21 1.27 1.36 1.24 0.84 0.67 0.71 0.80 0.72 0.74 0.97 1.06 1.05 1.14 1.24 1.29 1.35 1.43 1.25 1.31 1.23 1.28 1.20 1.10 1.08 1.08 1.02 0.96 0.86 0.80
0.09 0.16 0.14 0.08 0.09 0.13 0.13 0.16 0.25 0.41 0.67 0.94 0.96 0.96 1.13 1.06 0.90 0.98 1.08 1.28 1.39 1.54 1.49 1.14 1.01 0.84 0.77 0.68 0.86 1.16 1.18 1.30 1.45 1.57 1.48 1.74 1.96 1.79 1.39 1.57 1.84 1.76 1.69 1.59 1.56 1.48 1.23 1.01 0.96
0.06 0.06 0.06 0.06 0.06 0.09 0.12 0.15 0.23 0.43 0.83 1.26 1.50 1.53 1.39 1.26 1.21 1.19 1.20 1.38 1.60 1.67 1.59 1.35 1.27 1.15 0.95 1.05 1.04 1.25 1.55 1.76 1.65 1.50 1.55 1.92 1.81 1.55 1.55 1.71 1.89 2.07 1.97 1.89 1.97 2.01 1.72 1.64 1.92
0.03 0.02 0.03 0.04 0.05 0.07 0.11 0.15 0.24 0.43 0.78 1.05 1.27 1.55 1.68 1.55 1.61 1.60 1.58 1.82 2.03 1.95 1.84 1.65 1.46 1.32 1.27 1.26 1.24 1.36 1.50 1.71 1.73 1.77 1.69 1.92 2.24 2.15 2.13 2.25 2.21 2.29 2.44 2.75 2.60 2.64 2.39 2.24 2.17
0.03 0.04 0.04 0.05 0.06 0.07 0.10 0.19 0.31 0.49 0.61 0.79 0.94 1.11 1.39 1.74 2.08 2.20 2.30 2.67 2.58 2.44 2.35 2.14 1.79 1.75 1.70 1.79 1.87 1.63 1.68 1.79 2.01 2.17 2.13 2.11 2.40 2.42 2.47 2.50 2.50 2.34 2.44 2.62 2.89 2.76 2.80 2.83 2.59
0.04 0.05 0.06 0.07 0.08 0.09 0.15 0.30 0.35 0.54 0.60 0.71 0.90 1.10 1.64 2.23 2.41 2.70 3.11 3.37 3.28 3.08 3.13 2.90 2.53 2.48 2.43 2.28 2.25 2.15 1.96 2.12 2.20 2.32 2.30 2.32 2.56 2.74 2.71 2.54 2.55 2.41 2.39 2.51 2.75 2.81 3.17 3.14 3.03
0.04 0.07 0.10 0.11 0.11 0.14 0.22 0.47 0.53 0.63 0.68 0.80 1.14 1.33 1.78 2.13 2.41 2.56 3.03 3.36 3.36 3.34 3.54 3.52 3.34 3.33 3.26 3.03 2.74 2.50 2.39 2.33 2.54 2.65 2.57 2.62 2.67 2.86 2.82 2.73 2.53 2.49 2.53 2.74 2.84 2.88 3.15 3.17 3.08
0.08 0.16 0.25 0.19 0.16 0.18 0.30 0.77 0.69 0.69 0.89 1.15 1.37 1.51 1.75 1.91 2.29 2.43 2.81 3.29 3.55 3.59 3.82 4.05 3.98 3.99 3.83 3.64 3.35 3.05 2.82 2.76 2.76 2.71 2.72 2.65 2.77 2.83 2.95 2.75 2.49 2.57 2.54 2.70 3.00 3.10 3.29 3.49 3.48
0.13 0.22 0.33 0.32 0.24 0.21 0.39 0.85 0.85 0.91 1.04 1.16 1.28 1.53 1.70 1.69 2.04 2.48 2.79 3.36 3.79 3.94 4.32 4.72 4.79 4.72 4.40 4.03 3.82 3.68 3.43 3.20 2.98 2.94 2.85 2.75 2.74 2.70 2.87 2.71 2.62 2.66 2.85 2.87 2.68 3.26 3.59 3.68 3.65
0.17 0.17 0.22 0.29 0.26 0.27 0.45 0.64 0.77 0.96 1.12 1.24 1.25 1.38 1.42 1.55 2.01 2.56 2.91 3.26 3.92 4.45 5.06 5.17 5.18 5.43 5.16 4.82 4.60 4.36 3.92 3.52 3.21 3.09 2.97 2.74 2.68 2.62 2.88 2.61 2.61 2.76 3.03 3.10 3.20 3.62 3.71 3.54 3.71
0.12 0.18 0.26 0.31 0.28 0.42 0.61 0.76 0.87 1.00 1.08 1.27 1.36 1.30 1.33 1.62 2.04 2.49 2.89 3.30 3.71 4.29 4.90 5.54 5.71 5.57 5.34 5.03 4.57 4.20 3.78 3.51 3.22 2.96 2.75 2.69 2.66 2.74 3.16 2.80 3.04 2.97 3.02 3.07 3.26 3.53 3.51 3.30 3.61
0.12 0.20 0.30 0.34 0.28 0.40 0.62 0.90 1.06 1.06 1.06 1.14 1.32 1.45 1.47 1.72 2.05 2.48 2.96 3.21 3.39 3.73 4.19 4.64 4.94 4.63 4.29 4.08 3.96 3.81 3.73 3.33 3.17 3.12 3.15 2.86 2.87 2.86 2.91 3.11 3.04 3.06 3.14 2.96 3.06 3.39 3.23 2.85 3.27
0.15 0.18 0.20 0.25 0.28 0.42 0.68 1.11 1.24 1.04 0.96 1.02 1.14 1.42 1.62 1.67 1.96 2.27 2.71 2.93 3.02 3.19 3.35 3.50 3.70 3.76 3.78 3.82 3.89 3.96 4.08 3.75 3.62 3.57 3.48 3.03 2.93 2.89 2.96 2.91 2.86 2.96 2.89 2.84 2.86 3.07 3.18 2.99 3.02
0.18 0.13 0.11 0.14 0.30 0.62 0.73 1.29 1.42 1.15 1.08 1.10 1.13 1.25 1.35 1.53 1.63 1.74 2.06 2.48 2.46 2.50 2.77 3.22 3.43 3.55 3.73 3.97 3.96 3.96 3.92 3.83 3.81 3.93 3.88 3.69 3.40 3.16 2.95 2.77 2.71 2.66 2.57 2.68 2.46 2.75 2.98 3.10 2.81
0.12 0.09 0.11 0.15 0.29 0.50 0.59 0.92 1.20 1.24 1.19 1.10 1.06 1.15 1.21 1.30 1.40 1.50 1.70 2.11 2.19 2.10 2.39 2.92 3.44 3.71 3.87 4.05 4.14 4.38 4.21 4.06 3.93 3.98 4.05 3.81 3.55 3.22 2.87 2.81 2.75 2.68 2.55 2.46 2.41 2.62 2.58 2.67 2.68
0.09 0.12 0.21 0.29 0.50 0.85 0.69 0.75 1.17 1.19 1.05 0.97 0.86 0.89 0.98 0.96 1.03 1.23 1.54 1.97 2.17 2.26 2.50 2.87 3.33 3.68 3.85 3.95 3.99 4.06 4.04 4.02 3.80 3.69 3.44 3.06 2.93 2.82 2.61 2.54 2.52 2.43 2.44 2.44 2.41 2.43 2.40 2.48 2.56
0.11 0.20 0.63 1.00 1.26 1.26 0.67 0.70 1.06 0.91 0.86 0.80 0.88 0.88 0.79 0.78 0.87 0.90 1.02 1.20 1.34 1.54 1.80 2.06 2.42 2.78 3.01 3.17 3.25 3.22 3.43 3.46 3.19 2.94 2.74 2.45 2.21 2.08 2.08 2.15 2.19 2.13 2.18 2.21 2.35 2.28 2.20 2.30 2.45
0.11 0.15 0.45 0.71 0.83 0.91 0.82 1.13 1.14 0.79 0.69 0.70 0.78 0.75 0.61 0.56 0.56 0.58 0.63 0.74 0.99 1.28 1.65 1.86 1.92 2.06 2.31 2.49 2.57 2.61 2.69 2.65 2.47 2.53 2.29 2.08 1.91 1.80 1.88 1.98 1.96 1.92 1.94 1.90 2.15 2.02 1.97 2.08 2.14
0.08 0.09 0.14 0.23 0.34 0.65 0.95 1.29 1.21 0.88 0.82 0.75 0.64 0.56 0.50 0.41 0.40 0.46 0.49 0.56 0.79 1.07 1.32 1.46 1.59 1.81 2.06 2.28 2.26 2.22 2.08 2.07 2.12 2.09 1.95 1.85 1.89 1.80 1.87 1.86 1.91 1.90 1.93 1.99 2.10 1.95 1.91 2.11 2.07
0.09 0.10 0.13 0.18 0.36 0.64 0.91 1.25 1.37 1.10 0.99 0.80 0.73 0.76 0.53 0.40 0.37 0.45 0.45 0.51 0.64 0.76 1.01 1.21 1.40 1.66 1.81 1.92 1.94 1.86 1.88 1.83 1.85 1.79 1.75 1.74 1.82 1.87 1.90 1.90 1.98 1.90 1.85 1.88 1.93 1.73 1.75 1.98 2.05
0.12 0.12 0.13 0.15 0.21 0.45 0.84 1.11 1.01 0.93 0.82 0.68 0.68 0.66 0.57 0.51 0.41 0.37 0.42 0.47 0.60 0.76 0.96 1.22 1.42 1.55 1.62 1.63 1.67 1.74 1.72 1.71 1.75 1.68 1.63 1.68 1.85 1.88 1.83 1.81 1.81 1.81 1.77 1.81 1.84 1.67 1.81 1.95 2.00
0.13 0.13 0.14 0.20 0.20 0.23 0.48 0.84 0.71 0.66 0.69 0.67 0.64 0.64 0.63 0.55 0.51 0.49 0.56 0.59 0.68 0.82 0.95 1.25 1.52 1.57 1.60 1.66 1.80 1.92 1.98 2.01 1.95 1.76 1.65 1.71 1.81 1.86 1.88 1.87 1.83 1.72 1.74 1.92 1.98 1.87 1.95 2.03 2.01